Regional Weather Roundup
Issued by NWS Wakefield, VA

Current Version | Previous Version | Text Only | Print | Product List | Glossary Off
Versions: 1 2 3 4 5 6 7 8 9 10 11 12 13 14 15 16 17 18 19 20 21 22 23 24 25 26 27 28 29 30 31 32 33 34 35 36 37 38 39 40 41 42 43 44 45 46 47

000
ASUS41 KAKQ 301512
RWRAKQ

REGIONAL WEATHER ROUNDUP
NATIONAL WEATHER SERVICE WAKEFIELD VA
1100 AM EDT SUN AUG 30 2015

Note: "fair" indicates few or no clouds below 12,000 feet with no
significant weather and/or obstructions to visibility. * = Denotes
station may not report precipitation (e.g., rain,snow,etc.),
thunder or fog.

VAZ042-051-052>054-056-301600-
NORTHERN VIRGINIA

CITY           SKY/WX    TMP DP  RH WIND       PRES   REMARKS
WASH NATIONAL  CLOUDY    76  65  68 SW6       30.15S
DULLES         CLOUDY    76  65  68 SW3       30.14S
FORT BELVOIR   CLOUDY    74  65  72 VRB2      30.14S
QUANTICO       CLOUDY    73  64  73 CALM      30.15S
FREDERICKSBRG* CLOUDY    77  67  69 CALM      30.14S
STAFFORD*      CLOUDY    73  64  74 CALM      30.19S
WARRENTON      CLOUDY    76  68  76 CALM      30.15S
CULPEPER*      CLOUDY    74  67  77 S3        30.15F
MANASSAS*      SUNNY     73  68  83 CALM      30.15S
LEESBURG*      PTSUNNY   79  70  73 SW6       30.16R
WINCHESTER     MOSUNNY   81  63  54 S5        30.16R
FRONT ROYAL*   FAIR      79  63  57 S3        30.15S
LURAY*         FAIR      77  63  61 SW5       30.17S
$$

VAZ048-049-060>072-079>083-301600-
CENTRAL AND SOUTH CENTRAL VIRGINIA

CITY           SKY/WX    TMP DP  RH WIND       PRES   REMARKS
RICHMOND       PTSUNNY   84  62  47 SW6       30.16R
CHESTERFIELD*  FAIR      82  57  42 W8        30.17S
PETERSBURG*    MOSUNNY   84  68  58 SW7       30.17R
HANOVER        PTSUNNY   81  64  56 S7        30.17S
TAPPAHANNOCK*  PTSUNNY   80  61  53 S3        30.16S
QUINTON*       FAIR      80  66  62 CALM      30.16R
CHARLOTTSVILLE CLOUDY    78  66  66 CALM      30.16R
GORDONSVILLE*  FAIR      76  66  73 CALM      30.15S
ORANGE*        CLOUDY    77  64  65 CALM      30.16S
LOUISA*        CLOUDY    75  64  69 CALM      30.15R
BUMPASS*       FAIR      76  65  69 CALM      30.16R
FARMVILLE*     PTSUNNY   83  61  48 S5        30.15S
CREWE*         FAIR     N/A N/A N/A CALM      30.16S
FORT PICKETT*  FAIR      83  63  51 SW5       30.17S
CHASE CITY*    FAIR      85  66  52 CALM      30.17S
CLARKSVILLE*   FAIR      82  64  54 S5        30.18R
SOUTH HILL*    MOSUNNY   81  64  57 SW7       30.24R
LAWRENCEVILLE* FAIR      81  64  57 SW6       30.18R
EMPORIA*       SUNNY     81  64  57 SW3       30.19R
$$

VAZ088>098-301600-
SOUTHEAST VIRGINIA

CITY           SKY/WX    TMP DP  RH WIND       PRES   REMARKS
NORFOLK        MOSUNNY   81  63  54 CALM      30.17R
VIRGINIA BEACH PTSUNNY   84  68  58 VRB3      30.16R
NORFOLK NAVAL  PTSUNNY   81  63  54 VRB7      30.18R
WEST POINT*    PTSUNNY   83  61  47 S5        30.18R
SALUDA*        FAIR      80  66  61 CALM      30.16S
NEWPORT NEWS   MOSUNNY   82  62  50 CALM      30.17R
LANGLEY AFB    PTSUNNY   82  62  52 NE2       30.16R
FORT EUSTIS    MOSUNNY   80  61  51 SW3       30.16R
WILLIAMSBURG*  MOSUNNY   84  64  51 S6        30.18R
HR EXEC AP*      N/A     82  66  57 CALM      30.19R
FRANKLIN*      NOT AVBL
WAKEFIELD      MOSUNNY   82  61  48 VRB3      30.18R
$$

VAZ020-022-025-037-045-301600-
WEST CENTRAL AND SOUTHWEST VIRGINIA

CITY           SKY/WX    TMP DP  RH WIND       PRES   REMARKS
STAUNTON*      CLOUDY    77  64  63 CALM      30.21S
WAYNESBORO*    FAIR      78  63  61 S3        30.21R
HOT SPRINGS VA CLOUDY    69  57  67 W5        30.30R
LYNCHBURG      CLOUDY    79  62  56 VRB3      30.19S
DANVILLE       MOSUNNY   79  66  64 SW3       30.18S
SOUTH BOSTON*  FAIR      81  63  54 S6        30.17S
MARTINSVILLE   PTSUNNY   80  65  61 CALM      30.21S
ROANOKE        CLOUDY    77  63  61 W5        30.21S
BLACKSBURG     CLOUDY    72  66  81 CALM      30.27R
DUBLIN*        CLOUDY    74  64  70 CALM      30.26R
MARION*        CLOUDY    73  61  65 CALM      30.28S
HILLSVILLE*    CLOUDY    69  63  80 CALM      30.25S
RICHLANDS*     FAIR      69  35  28 CALM      30.27R
WISE*          CLOUDY    73  57  56 CALM      30.28R
ABINGDON*      CLOUDY    73  60  63 CALM      30.25R
$$

MDZ021>025-VAZ099-100-301600-
SOUTHERN MARYLAND AND THE DELMARVA PENINSULA

CITY           SKY/WX    TMP DP  RH WIND       PRES   REMARKS
PATUXENT RIVER CLOUDY    75  63  66 SW5       30.15S
BAY BRIDGE APT   N/A     75  63  64 S6        30.15S
LEONARDTOWN    CLOUDY    73  61  64 CALM      30.17S
DOVER          MOSUNNY   82  67  60 SW8       30.13S
GEORGETOWN     PTSUNNY   80  64  58 SW7       30.16S
EASTON         MOSUNNY   81  64  57 SW8       30.19R
CAMBRIDGE      PTSUNNY   77  64  65 S3        30.15S
SALISBURY      CLOUDY    77  68  73 SW5       30.16R
OCEAN CITY     CLOUDY    80  63  55 SW6       30.16S
WALLOPS ISLAND CLOUDY    82  64  54 CALM      30.17S
ACCOMACK*      PTSUNNY   79  54  41 CALM      30.16S
$$

NCZ012>017-030>032-301600-
NORTH CENTRAL AND EASTERN NORTH CAROLINA

CITY           SKY/WX    TMP DP  RH WIND       PRES   REMARKS
ROANOKE RAPIDS FAIR      81  61  50 W5        30.18R
RALEIGH        CLOUDY    81  62  52 VRB3      30.20R
ELIZABETH CITY SUNNY     81  68  64 N6        30.18R
AHOSKIE*       PTSUNNY   81  62  52 CALM      30.18R
EDENTON*       SUNNY     79  66  64 CALM      30.18R
CURRITUCK*     SUNNY     80  64  57 NE3       30.18R
KILL DEVIL HLS SUNNY     83  71  65 N8        30.15R
MANTEO         PTSUNNY   80  71  74 NE8       30.17R
CAPE HATTERAS  MOSUNNY   81  74  79 VRB5      30.16R
TARBORO*       FAIR      83  63  50 W6        30.19S
GOLDSBORO      PTSUNNY   80  65  58 SE3       30.17R
WASHINGTON     SUNNY     80  65  60 CALM      30.18R
GREENVILLE     SUNNY     81  63  54 CALM      30.19R
NEW BERN       PTSUNNY   78  64  61 N5        30.19R
WILMINGTON     CLOUDY    75  68  78 NE5       30.18R
$$

VAZ048-301600-
ELSEWHERE

CITY           SKY/WX    TMP DP  RH WIND       PRES   REMARKS
HARRISBURG PA  PTSUNNY   79  66  64 CALM      30.12S
BALTIMORE      PTSUNNY   77  65  66 SW3       30.13S
ANNAPOLIS      PTSUNNY   76  63  64 VRB3      30.13S
ANDREWS AFB    CLOUDY    76  65  68 S3        30.14S
PHILADELPHIA   PTSUNNY   81  64  56 SW8       30.13F
HENDERSON NC   CLOUDY    80  60  51 S3        30.19S
GREENSBORO     CLOUDY    81  61  50 SW3       30.19R
ROCKY MOUNT    MOSUNNY   84  60  44 VRB3      30.19R
$$

VAZ100-301600-
MARINE

STATION/POSITION TIME  TEMP    WIND        PRES    WAVE   SWELL
                       AIR SEA DIR/SP/G            HT/PER HT/PER
                 (UTC) (F)     (DEG/KT/KT) (MB)    (FT/S) (FT/S)
15NM E FENWICK I 1450   76 78  240/  6/  6 1021.5R   3/11   3/11
GOOSES REEF MD   1500   76 79  220/  8/ 10 1021.9R
POTOMAC MD       1500   78 79  190/  4/  6 1020.1F   0
STINGRAY PT      1500   78 79  180/  2/  4 1021.8R   0
JAMESTOWN VA     1500   79 81   CALM  /  2   N/A
CHESAPEAKE LGHT  1400   77     360/  5/  5 1021.6S
CAPE HENRY BUOY  1428      78                N/A     3/11   2/11
1ST LANDING BUOY 1500      79              1021.2R   2/ 4
CAPE CHARLES BUO 1426      79                N/A     3/11   3/11
OFFSHORE WE BUOY 1411      78                N/A     3/11   3/11
64NM E OF VA BCH 1450   78 77   30/ 12/ 14 1020.6R   4/11   3/11
44100 DUCK FRF   1424      78                N/A     4/11   2/11
44056 DUCK FRF   1411      78                N/A     3/11   2/11
DIAMOND SHLS NC  1450   78 84  360/ 10/ 12 1021.2R   4/10   3/10
CAPE LOOKOUT NC  1400   77     360/  4/  5 1021.0R
$$



USA.gov is the U.S. government's official web portal to all federal, state and local government web resources and services.